Hourly Data Report for October 01, 2017

All times are specified in Local Standard Time (LST). Add 1 hour to adjust for Daylight Saving Time where and when it is observed.

PINAWA
MANITOBA

50°10'38.020" N
96°03'53.000" W
268.00 m
503B1ER
71448
WEA

Download Data

Hourly Data (October 2017)
Hourly Data Report for October 1, 2017
Temp Definition
°C
Dew Point Temp Definition
°C
Rel Hum Definition
%
Wind Dir Definition
10's deg

Wind Spd Definition
km/h
Visibility Definition
km
Stn Press Definition
kPa
Hmdx Definition


Wind Chill Definition


Weather Definition


TIME
00:00 14.5 9.5 72 14 12   97.88     LegendNANA
01:00 14.3 9.3 72 13 13   97.82     LegendNANA
02:00 13.9 9.2 73 13 12   97.74     LegendNANA
03:00 14.4 9.0 70 14 15   97.64     LegendNANA
04:00 14.2 8.9 70 14 15   97.60     LegendNANA
05:00 13.8 8.9 72 14 14   97.57     LegendNANA
06:00 13.8 8.9 73 13 14   97.51     LegendNANA
07:00 13.6 8.8 73 14 14   97.51     LegendNANA
08:00 14.4 9.2 71 14 14   97.49     LegendNANA
09:00 15.9 9.3 65 14 14   97.50     LegendNANA
10:00 15.6 9.7 68 14 16   97.49     LegendNANA
11:00 15.6 10.5 72 14 14   97.43     LegendNANA
12:00 15.1 11.5 79 15 13   97.41     LegendNANA
13:00 15.4 11.9 79 13 11   97.32     LegendNANA
14:00 14.1 12.5 90 13 9   97.26     LegendNANA
15:00 13.7 12.3 91 14 13   97.21     LegendNANA
16:00 13.5 12.2 92 13 11   97.18     LegendNANA
17:00 13.3 12.0 92 14 11   97.18     LegendNANA
18:00 13.4 12.2 92 14 9   97.19     LegendNANA
19:00 13.6 12.1 91 14 10   97.23     LegendNANA
20:00 13.6 12.0 90 14 10   97.22     LegendNANA
21:00 13.5 11.9 90 14 11   97.26     LegendNANA
22:00 13.5 11.9 90 15 8   97.23     LegendNANA
23:00 13.7 12.1 90 14 10   97.18     LegendNANA

Notes on Data Quality.

Legend

  • E = Estimated
  • M = Missing
  • NA = Not Available
  • ‡ = Partner data that is not subject to review by the National Climate Archives
Date modified: